Weather History for K0VG - February, 2014

Nearest airport to NA, NA.

See history from more local stations
Change the Weather History Date:

Friday, February 28, 2014

  Actual Average (KLOZ) Record (KLOZ)
Temperature  
Mean Temperature 30 °F 43 °F  
Max Temperature 48 °F 54 °F 74 °F (1976)
Min Temperature 12 °F 32 °F 14 °F (2002)
Degree Days  
Heating Degree Days 35 22  
Month to date heating degree days 711  
Since 1 July heating degree days 3276  
Cooling Degree Days 0 0  
Month to date cooling degree days 0  
Year to date cooling degree days 0  
Moisture  
Dew Point 2 °F    
Average Humidity 43    
Maximum Humidity 92    
Minimum Humidity 4    
Precipitation  
Precipitation 0.00 in 0.13 in 1.55 in (2011)
Month to date precipitation 3.71  
Year to date precipitation 7.25  
Sea Level Pressure  
Sea Level Pressure 30.12 in    
Wind  
Wind Speed 3 mph (NNE)    
Max Wind Speed 9 mph    
Max Gust Speed -    
Visibility 11 miles    
Events      
T = Trace of Precipitation, MM = Missing Value Source: NWS Daily Summary

Daily Weather History Graph

Daily Weather History Graph

Search for Another Location

Airport or City:

Trip Planner

Search our weather history database for the weather conditions in past years. The results will help you decide how hot, cold, wet, or windy it might be!

Date:

Astronomy

Feb. 28, 2014 Rise Set
Actual Time 7:04 AM EST 6:26 PM EST
Civil Twilight 6:38 AM EST 6:52 PM EST
Nautical Twilight 6:08 AM EST 7:22 PM EST
Astronomical Twilight 5:39 AM EST 7:52 PM EST
Moon 6:18 AM EST (2/28) 6:01 PM EST (2/28)
Length of Visible Light 12h 13m
Length of Day
11h 21m
Waning Crescent, 1% of the Moon is Illuminated
Feb 28
Waning Crescent
Mar 1
New
Mar 8
First Quarter
Mar 16
Full
Mar 23
Last Quarter

Hourly Weather History & Observations

Time (EST) Temp. Windchill Dew Point Humidity Pressure Visibility Wind Dir Wind Speed Gust Speed Precip Events Conditions
12:08 AM 19.4 °F - 10.4 °F 68% - 18.0 mi North - - N/A   Scattered Clouds
1:15 AM 15.8 °F - 10.4 °F 79% 30.07 in - Calm Calm - N/A   Partly Cloudy
1:55 AM 15.8 °F - 10.4 °F 79% 30.08 in 10.0 mi Calm Calm - N/A   Partly Cloudy
2:22 AM - - - N/A% 30.08 in 10.0 mi North 9.2 mph - N/A   Partly Cloudy
2:23 AM - - - N/A% 30.08 in 10.0 mi North 9.2 mph - N/A   Partly Cloudy
2:24 AM - - - N/A% 30.08 in 10.0 mi North 9.2 mph - N/A   Partly Cloudy
2:41 AM 14.0 °F 2.0 °F 10.4 °F 86% 30.08 in 10.0 mi North 9.2 mph - N/A   Clear
2:42 AM 14.0 °F 2.0 °F 10.4 °F 86% 30.08 in 10.0 mi North 9.2 mph - N/A   Clear
2:55 AM 14.0 °F - 10.4 °F 86% 30.07 in 10.0 mi Calm Calm - N/A   Clear
3:15 AM 14.0 °F - 10.4 °F 86% - 10.0 mi North - - N/A   Clear
3:35 AM - - - N/A% 30.08 in 18.0 mi North - - N/A   Unknown
4:21 AM 14.0 °F 2.0 °F 10.4 °F 86% 30.10 in 10.0 mi North 9.2 mph - N/A   Clear
4:23 AM 14.0 °F 2.0 °F 10.4 °F 86% 30.10 in 10.0 mi North 9.2 mph - N/A   Clear
4:24 AM 14.0 °F 2.0 °F 10.4 °F 86% 30.10 in 10.0 mi North 9.2 mph - N/A   Clear
5:00 AM - - - N/A% - - Calm Calm - N/A   Clear
5:15 AM - - - N/A% 30.11 in 18.0 mi North - - N/A   Unknown
5:35 AM - - - N/A% - 10.0 mi North - - N/A   Unknown
5:55 AM - - - N/A% 30.12 in 10.0 mi Calm Calm - N/A   Unknown
6:41 AM 14.0 °F - 10.4 °F 86% 30.13 in 10.0 mi Calm Calm - N/A   Clear
6:42 AM 14.0 °F - 10.4 °F 86% 30.13 in 10.0 mi Calm Calm - N/A   Clear
7:15 AM 12.2 °F - 10.4 °F 92% 30.13 in 10.0 mi Calm Calm - N/A   Unknown
8:15 AM - - - N/A% 30.16 in 18.0 mi North - - N/A   Unknown
8:35 AM 24.8 °F - 14.0 °F 64% 30.17 in 10.0 mi Calm Calm - N/A   Unknown
9:40 AM 30.2 °F 26.7 °F 10.4 °F 44% 30.18 in 10.0 mi ENE 3.5 mph - N/A   Clear
9:42 AM 30.2 °F 26.7 °F 10.4 °F 44% 30.18 in 10.0 mi ENE 3.5 mph - N/A   Clear
9:55 AM 32.0 °F - 10.4 °F 41% 30.18 in - Calm Calm - N/A   Clear
10:44 AM 35.6 °F - 8.6 °F 33% 30.18 in 10.0 mi Calm Calm - N/A   Clear
10:45 AM 35.6 °F - 8.6 °F 33% 30.18 in 10.0 mi Calm Calm - N/A   Clear
10:46 AM 35.6 °F - 8.6 °F 33% 30.18 in 10.0 mi Calm Calm - N/A   Clear
11:15 AM - - - N/A% - 18.0 mi North - - N/A   Unknown
11:30 AM 37.4 °F - 8.6 °F 30% 30.18 in - Calm Calm - N/A   Clear
12:22 PM 39.2 °F 33.0 °F 8.6 °F 28% 30.17 in 10.0 mi North 9.2 mph - N/A   Clear
12:23 PM 39.2 °F 33.0 °F 8.6 °F 28% 30.17 in 10.0 mi North 9.2 mph - N/A   Clear
12:24 PM 39.2 °F 33.0 °F 8.6 °F 28% 30.17 in 10.0 mi North 9.2 mph - N/A   Clear
12:40 PM 41.0 °F 39.0 °F 6.8 °F 24% 30.16 in 10.0 mi SE 3.5 mph - N/A   Clear
12:42 PM 41.0 °F 39.0 °F 6.8 °F 24% 30.16 in 10.0 mi SE 3.5 mph - N/A   Clear
12:55 PM 42.8 °F 40.1 °F 1.4 °F 18% 30.15 in - East 4.6 mph - N/A   Clear
1:15 PM - - - N/A% - 10.0 mi North - - N/A   Unknown
1:40 PM 46.4 °F - 6.8 °F 20% 30.12 in 10.0 mi Calm Calm - N/A   Clear
1:42 PM 46.4 °F - 6.8 °F 20% 30.12 in 10.0 mi Calm Calm - N/A   Clear
1:55 PM - - - N/A% - 10.0 mi North - - N/A   Unknown
2:15 PM - - - N/A% - 18.0 mi North - - N/A   Unknown
2:40 PM - - - N/A% - 10.0 mi SE 5.8 mph - N/A   Unknown
3:00 PM 46.4 °F 45.2 °F 5.0 °F 18% 30.11 in 10.0 mi SSW 3.5 mph - N/A   Clear
3:02 PM 46.4 °F 45.2 °F 5.0 °F 18% 30.11 in 10.0 mi SSW 3.5 mph - N/A   Clear
3:03 PM 46.4 °F 45.2 °F 5.0 °F 18% 30.11 in 10.0 mi SSW 3.5 mph - N/A   Clear
3:10 PM - - - N/A% - 10.0 mi North - - N/A   Unknown
3:30 PM - - - N/A% - 10.0 mi North - - N/A   Unknown
3:55 PM - - 1.4 °F N/A% 30.11 in - Calm Calm - N/A   Clear
4:41 PM 48.2 °F - 5.0 °F 17% 30.18 in 10.0 mi North 9.2 mph - N/A   Clear
4:43 PM 48.2 °F - 5.0 °F 17% 30.18 in 10.0 mi North 9.2 mph - N/A   Clear
4:44 PM 48.2 °F - 5.0 °F 17% 30.18 in 10.0 mi North 9.2 mph - N/A   Clear
4:50 PM 48.2 °F - 5.0 °F 17% 30.10 in 10.0 mi Calm Calm - N/A   Clear
5:10 PM - - - N/A% - 10.0 mi North - - N/A   Unknown
5:35 PM 46.4 °F - 6.8 °F 20% 30.10 in 10.0 mi Calm Calm - N/A   Clear
5:55 PM - - - N/A% - 10.0 mi North - - N/A   Unknown
6:15 PM - - 6.8 °F N/A% 30.09 in - Calm Calm - N/A   Clear
6:41 PM 44.6 °F - 8.6 °F 23% 30.08 in 10.0 mi Calm Calm - N/A   Clear
6:43 PM 44.6 °F - 8.6 °F 23% 30.08 in 10.0 mi Calm Calm - N/A   Clear
6:44 PM 44.6 °F - 8.6 °F 23% 30.08 in 10.0 mi Calm Calm - N/A   Clear
7:00 PM 41.0 °F - 10.4 °F 29% 30.08 in 10.0 mi Calm Calm - N/A   Clear
7:10 PM 39.2 °F - 12.2 °F 33% 30.08 in 10.0 mi Calm Calm - N/A   Clear
7:28 PM 37.4 °F - 14.0 °F 38% 30.08 in 10.0 mi North - - N/A   Partly Cloudy
8:00 PM 33.8 °F - 14.0 °F 44% 30.09 in 10.0 mi North - - N/A   Scattered Clouds
8:15 PM 46.4 °F - 14.0 °F 27% 30.09 in 10.0 mi Calm Calm - N/A   Scattered Clouds
8:38 PM - - - N/A% - 18.0 mi North - - N/A   Scattered Clouds
9:10 PM 30.2 °F - 14.0 °F 51% - 18.0 mi North - - N/A   Scattered Clouds
9:42 PM 30.2 °F - 15.8 °F 55% 30.12 in 10.0 mi Calm Calm - N/A   Partly Cloudy
9:44 PM 30.2 °F - 15.8 °F 55% 30.12 in 10.0 mi Calm Calm - N/A   Partly Cloudy
10:00 PM 28.4 °F - -128.2 °F 4% 30.13 in 10.0 mi Calm Calm - N/A   Mostly Cloudy
10:01 PM 28.4 °F - -128.2 °F 4% 30.13 in 10.0 mi Calm Calm - N/A   Mostly Cloudy
10:18 PM 28.4 °F - 15.8 °F 59% - 10.0 mi North - - N/A   Overcast
10:35 PM 32.0 °F 28.7 °F 12.2 °F 44% - 10.0 mi ENE 3.5 mph - N/A   Scattered Clouds
11:00 PM 32.0 °F - 14.0 °F 48% 30.15 in 10.0 mi North - - N/A   Mostly Cloudy
11:30 PM 32.0 °F - -128.2 °F 4% 30.16 in - Calm Calm - N/A   Mostly Cloudy
11:55 PM 32.0 °F - 17.6 °F 55% 30.16 in 10.0 mi North - - N/A   Overcast